[[{"header":{"parameterUnit":"m.s-1","parameterCategory":1,"la1":30.2991,"la2":30.254,"lo1":-89.0895,"lo2":-89.0444,"dy":0.0017,"dx":0.0017,"nx":28,"ny":28,"refTime":"2024-12-04T09:00:00:Z","depth":0,"parameterNumber":2,"parameterNumberName":"U-component_of_WINDS"},"data":[0,0,0,0,0,0,0,0,0,0,0,0,0,0,0,0,0,0,0,0,0,0,0,0,0,0,0,0,0,0,0,0,0,0,0,0,0,0,0,0,0,0,0,0,0,0,0,0,0,0,0,0,0,0,0,0,0,0,-2.2402,-2.2403,0,-2.2456,-2.2456,-2.2457,-2.246,-2.2459,-2.2459,-2.2458,-2.2512,-2.2514,-2.2516,0,0,0,0,0,0,0,0,0,0,0,0,0,-2.2302,-2.2304,-2.2402,-2.2403,-2.2403,-2.2456,-2.2456,-2.2457,-2.246,-2.2459,-2.2459,-2.2458,-2.2512,-2.2514,-2.2516,0,0,0,0,0,0,0,0,0,0,0,0,0,-2.235,-2.2305,-2.2402,-2.2411,-2.2413,-2.2455,-2.2456,-2.2457,-2.246,-2.2459,-2.2458,-2.2457,-2.2511,-2.2514,-2.2517,-2.2554,0,0,-2.2526,-2.2527,0,0,0,0,0,0,0,0,-2.2347,-2.2353,-2.2409,-2.2411,-2.2412,-2.245,-2.2441,-2.2489,-2.246,-2.2442,-2.2458,-2.2457,-2.2492,-2.2497,-2.2509,-2.2556,-2.2559,-2.2526,-2.2528,-2.2529,-2.253,0,0,0,0,0,0,0,-2.2344,-2.2351,-2.2423,-2.241,-2.2412,-2.2413,-2.2418,-2.245,-2.2472,-2.2444,-2.2444,-2.245,-2.2493,-2.2506,-2.251,-2.2559,-2.2526,-2.2529,-2.2531,-2.2532,-2.2639,-2.264,0,0,0,0,0,0,-2.2339,-2.2348,-2.2422,-2.2425,-2.2377,-2.2415,-2.2422,-2.2439,-2.2471,-2.2475,-2.2451,-2.245,-2.2501,-2.2507,-2.2512,-2.2557,-2.2529,-2.2532,-2.2534,-2.2638,-2.2639,-2.2641,0,0,0,0,0,0,-2.2337,-2.2345,-2.2419,-2.2387,-2.2396,-2.2418,-2.2437,-2.244,-2.2453,-2.2477,-2.2481,-2.246,-2.2501,-2.2508,-2.2543,-2.2558,-2.2533,-2.2536,-2.2637,-2.2639,-2.264,-2.2646,0,0,0,0,0,0,-2.2334,-2.2344,-2.2359,-2.2387,-2.2398,-2.245,-2.2438,-2.2442,-2.2459,-2.2458,-2.2487,-2.249,-2.25,-2.2539,-2.2546,-2.2562,-2.2539,-2.2636,-2.2638,-2.264,-2.2645,-2.2648,-2.2651,0,0,0,0,0,-2.233,-2.2358,-2.2359,-2.2368,-2.2416,-2.2451,-2.2457,-2.2468,-2.246,-2.2474,-2.2489,-2.249,-2.2556,-2.2542,-2.2551,-2.2568,-2.2635,-2.2637,-2.2639,-2.2644,-2.2647,-2.2651,0,0,0,0,0,0,-2.2331,-2.2362,-2.2364,-2.2402,-2.2424,-2.2451,-2.2469,-2.2472,-2.2496,-2.2494,-2.2507,-2.2514,-2.2549,-2.2562,-2.2546,-2.2605,-2.2594,-2.2599,-2.2595,-2.2599,-2.2601,-2.2597,-2.2541,0,0,0,0,0,-2.2336,-2.2361,-2.2387,-2.2418,-2.2429,-2.2448,-2.2463,-2.247,-2.2493,-2.2502,-2.252,-2.2542,-2.2567,-2.2584,-2.2609,-2.2648,-2.2653,-2.2664,-2.2667,-2.2669,-2.2672,-2.2692,-2.2697,-2.2648,-2.2648,-2.2648,0,0,-2.2345,-2.2366,-2.2381,-2.2419,-2.2437,-2.2462,-2.2455,-2.2483,-2.2502,-2.2506,-2.254,-2.2554,-2.258,-2.2616,-2.2634,-2.2629,-2.2687,-2.2672,-2.2673,-2.2675,-2.2695,-2.27,-2.2704,-2.265,-2.265,-2.2649,0,0,-2.2376,-2.2394,-2.2422,-2.244,-2.2467,-2.2479,-2.2486,-2.2513,-2.2522,-2.2557,-2.2561,-2.2584,-2.2628,-2.2646,-2.2661,-2.2699,-2.2699,-2.2707,-2.2721,-2.2741,-2.2745,-2.2748,-2.2761,-2.2765,-2.271,-2.271,-2.271,0,-2.2384,-2.2423,-2.2436,-2.2463,-2.248,-2.2485,-2.2513,-2.253,-2.2564,-2.2575,-2.2569,-2.2625,-2.2643,-2.2683,-2.2693,-2.2705,-2.2712,-2.2703,-2.2744,-2.2747,-2.275,-2.2762,-2.2767,-2.2711,-2.2711,-2.2711,-2.2711,0,-2.2432,-2.2459,-2.2478,-2.251,-2.2529,-2.2557,-2.2573,-2.2591,-2.2597,-2.2609,-2.2645,-2.2666,-2.2695,-2.2706,-2.2712,-2.2748,-2.2744,-2.2741,-2.273,-2.2755,-2.2767,-2.2772,-2.2712,-2.2711,-2.2711,-2.2711,0,0,-2.2463,-2.2502,-2.2509,-2.2524,-2.2554,-2.2575,-2.2603,-2.2632,-2.2646,-2.267,-2.2693,-2.2731,-2.2728,-2.2745,-2.2753,-2.2771,-2.2799,-2.2766,-2.2767,-2.277,-2.2838,-2.2839,-2.2844,-2.28,-2.2801,-2.2802,-2.2836,0,-2.2496,-2.2545,-2.2558,-2.26,-2.2624,-2.2631,-2.2655,-2.2676,-2.2689,-2.2712,-2.2726,-2.2752,-2.2748,-2.2758,-2.2776,-2.2791,-2.2812,-2.2789,-2.2821,-2.2822,-2.2812,-2.285,-2.2851,-2.2882,-2.284,-2.2841,-2.2842,0,-2.254,-2.2564,-2.2609,-2.2636,-2.2647,-2.2668,-2.2696,-2.2718,-2.2742,-2.275,-2.277,-2.2776,-2.2805,-2.2794,-2.2834,-2.2818,-2.2832,-2.2842,-2.2843,-2.2845,-2.2832,-2.2852,-2.2892,-2.2896,-2.2849,-2.2848,-2.2848,0,-2.2557,-2.2601,-2.2633,-2.2645,-2.2678,-2.2693,-2.2707,-2.2731,-2.2747,-2.2771,-2.2782,-2.281,-2.2824,-2.2845,-2.2858,-2.2849,-2.2897,-2.2887,-2.2904,-2.2903,-2.2912,-2.2911,-2.2953,-2.2924,-2.2924,-2.2923,-2.2923,0,-2.2591,-2.2618,-2.264,-2.266,-2.269,-2.2704,-2.2734,-2.2748,-2.2769,-2.2792,-2.2799,-2.282,-2.2837,-2.2861,-2.2872,-2.2902,-2.2909,-2.2916,-2.2918,-2.2915,-2.2913,-2.2922,-2.292,-2.2925,-2.2924,-2.2924,-2.2924,0,-2.2614,-2.263,-2.2665,-2.2694,-2.2701,-2.2722,-2.2746,-2.2765,-2.2779,-2.2807,-2.2815,-2.2836,-2.2864,-2.288,-2.2915,-2.2922,-2.2956,-2.2958,-2.2947,-2.2948,-2.2963,-2.2961,-2.3012,-2.3019,-2.2985,-2.2986,-2.2986,0,-2.2634,-2.2654,-2.2685,-2.27,-2.2715,-2.274,-2.2757,-2.2772,-2.2789,-2.2819,-2.2834,-2.2862,-2.2886,-2.293,-2.2948,-2.2975,-2.2977,-2.2993,-2.298,-2.2976,-2.2975,-2.2973,-2.2975,-2.2994,-2.2994,-2.2995,-2.2995,0,-2.2667,-2.2674,-2.2698,-2.2725,-2.2745,-2.2767,-2.2789,-2.2802,-2.282,-2.284,-2.2868,-2.2886,-2.2922,-2.295,-2.2978,-2.2993,-2.2997,-2.2999,-2.3004,-2.2999,-2.2992,-2.2994,-2.2951,-2.2997,-2.2997,-2.2997,-2.2997,-2.2996,-2.2688,-2.2706,-2.273,-2.2757,-2.2775,-2.2795,-2.2815,-2.2831,-2.2855,-2.2885,-2.2893,-2.2922,-2.2946,-2.2985,-2.3,-2.3024,-2.3021,-2.3028,-2.303,-2.3031,-2.3031,-2.2989,-2.3029,-2.3029,-2.3029,-2.3029,-2.3029,0,-2.272,-2.2736,-2.2761,-2.2791,-2.2812,-2.2815,-2.2839,-2.2856,-2.2882,-2.2904,-2.2927,-2.296,-2.2987,-2.3008,-2.3035,-2.305,-2.3052,-2.3056,-2.3055,-2.3058,-2.3033,-2.3025,-2.3054,-2.3054,-2.3054,-2.3054,-2.3054,-2.3054,-2.2739,-2.277,-2.278,-2.282,-2.2836,-2.2865,-2.2879,-2.2898,-2.2915,-2.2951,-2.2974,-2.2987,-2.3009,-2.3038,-2.3063,-2.3069,-2.3078,-2.3081,-2.3087,-2.3062,-2.306,-2.3057,-2.305,-2.3084,-2.3084,-2.311,-2.311,-2.311]},{"header":{"parameterUnit":"m.s-1","parameterCategory":1,"la1":30.2991,"la2":30.254,"lo1":-89.0895,"lo2":-89.0444,"dy":0.0017,"dx":0.0017,"nx":28,"ny":28,"refTime":"2024-12-04T09:00:00:Z","depth":0,"parameterNumber":3,"parameterNumberName":"V-component_of_WINDS"},"data":[0,0,0,0,0,0,0,0,0,0,0,0,0,0,0,0,0,0,0,0,0,0,0,0,0,0,0,0,0,0,0,0,0,0,0,0,0,0,0,0,0,0,0,0,0,0,0,0,0,0,0,0,0,0,0,0,0,0,3.9067,3.9067,0,3.9093,3.9093,3.9094,3.9041,3.9039,3.9038,3.9036,3.9061,3.9063,3.9065,0,0,0,0,0,0,0,0,0,0,0,0,0,3.8971,3.8973,3.9067,3.9067,3.9068,3.9093,3.9093,3.9094,3.9041,3.9039,3.9037,3.9035,3.906,3.9062,3.9065,0,0,0,0,0,0,0,0,0,0,0,0,0,3.9006,3.8973,3.9067,3.9045,3.9043,3.9093,3.9093,3.9094,3.9042,3.9039,3.9037,3.9034,3.9059,3.9062,3.9065,3.9138,0,0,3.9076,3.9077,0,0,0,0,0,0,0,0,3.9004,3.901,3.9048,3.9046,3.9044,3.9061,3.9068,3.9108,3.9042,3.9042,3.9036,3.9033,3.9063,3.9066,3.9076,3.9139,3.914,3.9076,3.9078,3.908,3.9081,0,0,0,0,0,0,0,3.9002,3.9008,3.9077,3.9048,3.9046,3.9033,3.9035,3.9076,3.9066,3.9042,3.9038,3.9042,3.9061,3.9073,3.9076,3.914,3.9076,3.9079,3.9081,3.9082,3.9264,3.9267,0,0,0,0,0,0,3.9002,3.9007,3.9076,3.9078,3.9018,3.9037,3.9039,3.9058,3.9066,3.9065,3.9044,3.904,3.9068,3.9072,3.9077,3.9163,3.908,3.9083,3.9085,3.9262,3.9265,3.9268,0,0,0,0,0,0,3.9,3.9009,3.9075,3.9041,3.9049,3.9041,3.9063,3.906,3.9072,3.9068,3.9066,3.9058,3.9067,3.9072,3.9123,3.9163,3.9084,3.9087,3.9258,3.9263,3.9267,3.9334,0,0,0,0,0,0,3.8998,3.9009,3.9036,3.9042,3.9051,3.9122,3.9065,3.9063,3.9078,3.9072,3.908,3.9079,3.9065,3.9119,3.9127,3.9166,3.909,3.9255,3.926,3.9265,3.9328,3.934,3.935,0,0,0,0,0,3.8995,3.9054,3.9038,3.9047,3.9085,3.9124,3.9129,3.9113,3.9081,3.9109,3.9106,3.9078,3.9157,3.9124,3.9133,3.9174,3.9252,3.9259,3.9265,3.9324,3.9338,3.935,0,0,0,0,0,0,3.9051,3.9054,3.9037,3.9099,3.9112,3.9115,3.915,3.9128,3.9149,3.9143,3.9121,3.9123,3.9179,3.9181,3.9145,3.9244,3.9199,3.9208,3.9241,3.9255,3.9265,3.9264,3.9093,0,0,0,0,0,3.9072,3.9104,3.9104,3.9159,3.9167,3.9157,3.9174,3.916,3.9172,3.9177,3.9178,3.919,3.9218,3.9236,3.9261,3.9328,3.933,3.9361,3.9372,3.9381,3.9388,3.9425,3.9439,3.9289,3.9289,3.9289,0,0,3.9113,3.9118,3.914,3.9171,3.9179,3.9213,3.9162,3.9199,3.9224,3.9182,3.9231,3.9233,3.9245,3.9305,3.9331,3.9308,3.943,3.9389,3.9396,3.9399,3.9433,3.9447,3.946,3.9293,3.9292,3.9292,0,0,3.9205,3.9213,3.926,3.927,3.9283,3.9277,3.9288,3.9295,3.9295,3.9344,3.9313,3.9342,3.939,3.94,3.9411,3.9509,3.9484,3.9518,3.9575,3.9611,3.9623,3.9633,3.9669,3.9682,3.9525,3.9525,3.9526,0,3.9255,3.9305,3.9287,3.9327,3.9342,3.9307,3.9355,3.9364,3.9385,3.9396,3.937,3.943,3.9436,3.9498,3.9522,3.9532,3.9545,3.9517,3.9623,3.9633,3.9643,3.9676,3.969,3.9529,3.9529,3.9529,3.9528,0,3.9365,3.9401,3.9437,3.946,3.9478,3.9522,3.951,3.9531,3.9517,3.9513,3.9563,3.9569,3.9595,3.9609,3.9594,3.9669,3.9655,3.9627,3.9581,3.9661,3.9693,3.9705,3.9535,3.9534,3.9533,3.9532,0,0,3.9494,3.9507,3.9521,3.9531,3.9544,3.957,3.9612,3.9639,3.9658,3.9673,3.9708,3.975,3.9724,3.9737,3.9723,3.9755,3.9833,3.9723,3.9722,3.9744,3.9918,3.9939,3.9955,3.9817,3.9819,3.9821,3.9917,0,3.9587,3.966,3.9646,3.9718,3.975,3.9718,3.9754,3.9766,3.9764,3.9791,3.9788,3.9818,3.9782,3.9789,3.9819,3.9817,3.9868,3.981,3.9849,3.9851,3.9848,3.9971,3.9994,4.0084,3.9929,3.9931,3.9932,0,3.9704,3.9726,3.9801,3.981,3.9823,3.9857,3.988,3.9906,3.9919,3.9915,3.9931,3.9911,3.9953,3.9907,3.9964,3.9925,3.994,3.9942,3.9945,3.9948,3.9897,3.9978,4.0112,4.0126,3.9951,3.995,3.9949,0,3.9792,3.9839,3.9891,3.9901,3.9912,3.9936,3.9942,3.9952,3.9969,3.999,4.0001,4.0025,4.0039,4.0058,4.0046,4.0013,4.0106,4.0058,4.0104,4.0104,4.0125,4.0124,4.0264,4.0134,4.0134,4.0134,4.0133,0,3.9897,3.9945,3.9931,3.9963,4.0015,3.9998,4.005,4.0052,4.0061,4.0093,4.0066,4.0096,4.0077,4.0106,4.0096,4.0146,4.0152,4.015,4.0147,4.0153,4.0153,4.0162,4.0156,4.0137,4.0136,4.0136,4.0135,0,4.0004,3.9996,4.005,4.0057,4.006,4.0098,4.0104,4.0133,4.0129,4.017,4.0178,4.0172,4.0204,4.0193,4.0228,4.0221,4.0285,4.0273,4.0281,4.0278,4.0325,4.0321,4.0476,4.0496,4.0353,4.0354,4.0355,0,4.0072,4.0108,4.0119,4.0138,4.0146,4.0178,4.0196,4.018,4.02,4.0218,4.0245,4.0275,4.0299,4.0351,4.035,4.0376,4.0365,4.0418,4.0369,4.0374,4.0367,4.0365,4.0369,4.0428,4.043,4.0431,4.0432,0,4.0193,4.0188,4.0215,4.0241,4.0264,4.0283,4.03,4.0318,4.0303,4.0327,4.036,4.0378,4.0414,4.0444,4.0468,4.0473,4.0451,4.0448,4.046,4.0466,4.047,4.0469,4.0308,4.0444,4.0443,4.0442,4.0441,4.0441,4.0283,4.0314,4.0327,4.0358,4.037,4.0387,4.0415,4.0415,4.0443,4.0472,4.046,4.0499,4.0511,4.0541,4.055,4.058,4.0559,4.0577,4.0581,4.0586,4.0592,4.0465,4.0584,4.0583,4.0583,4.0583,4.0583,0,4.0404,4.0411,4.044,4.0466,4.049,4.0468,4.0485,4.0508,4.0542,4.0556,4.058,4.0618,4.0648,4.0649,4.0676,4.07,4.069,4.0708,4.0706,4.0708,4.0608,4.0596,4.0715,4.0715,4.0715,4.0715,4.0715,4.0715,4.047,4.0522,4.0518,4.0575,4.0582,4.062,4.0632,4.0648,4.0659,4.0704,4.0728,4.0729,4.0738,4.0766,4.0792,4.0792,4.0803,4.0825,4.0821,4.0728,4.0715,4.0702,4.069,4.0828,4.0828,4.0918,4.0919,4.0919]}]]